Location: Waldrue Heights
(38.3644°N, 122.5611°W)
Time: 04:17:58
(UTC+00:00)

Daily predictions for brighter satellites

Satellite Brightness Start Highest point End
(mag) Time Altitude Azimuth Time Altitude Azimuth Time Altitude Azimuth
Cosmos 1603 3.7 02:27:25 10° NNW 02:33:03 64° ENE 02:38:36 10° SSE
Cosmos 2233 Rocket 4.0 02:27:29 10° S 02:33:44 86° E 02:39:57 10° N
SJ 16-02 3.6 02:32:10 10° SW 02:36:01 30° WNW 02:39:53 10° N
Sich 1 Rocket 4.1 02:33:58 10° SSE 02:38:07 38° E 02:42:19 10° NNE
Cosmos 1975 2.9 02:34:21 10° S 02:38:26 90° W 02:42:32 10° N
H-2A R/B 2.7 02:35:10 10° SE 02:39:30 31° ENE 02:43:55 10° N
Okean 2 3.4 02:35:49 10° N 02:39:58 67° E 02:44:06 10° SSE
Meteor 1-21 4.3 02:34:51 10° N 02:40:21 55° ENE 02:45:48 10° SSE
NOSS 2-2 (E) 3.4 02:38:13 10° SW 02:41:41 69° WNW 02:45:23 10° NNE
Cosmos 1842 3.2 02:40:05 10° N 02:43:57 69° E 02:47:48 10° SSE
ATLAS 2AS CENTAUR R/B 4.2 02:43:13 10° SE 02:47:52 17° ESE 02:52:33 10° ENE
BREEZE-M DEB (TANK) 3.8 02:45:44 10° NNW 02:48:26 29° NNE 02:54:11 11° E
CZ-4 R/B 1.5 02:44:57 10° SSE 02:49:11 86° ENE 02:53:24 10° N
NOSS 2-2 (D) 3.3 02:47:11 10° SW 02:50:41 72° NW 02:54:20 10° NNE
Cosmos 1707 3.5 02:50:31 10° NNE 02:53:55 29° ENE 02:57:17 10° SE
USA 116 3.6 02:50:23 10° NNE 02:54:00 76° ESE 02:58:04 10° S
Okean 2 Rocket 3.6 02:50:18 10° SSE 02:54:25 36° E 02:58:32 10° NNE
CENTAUR R/B 4.3 02:48:58 10° NNW 02:55:23 25° NE 03:01:27 12° E
Cosmos 1300 Rocket 4.1 02:52:44 10° SSE 02:56:46 37° E 03:00:51 10° NNE
Ariane Rocket 4.2 02:56:56 12° ESE 03:00:14 23° ENE 03:04:07 10° NNE
Cosmos 1437 3.0 03:01:50 10° NNW 03:04:48 64° W 03:07:45 10° S
Okean-O 3.5 03:00:49 10° S 03:05:08 53° W 03:09:29 10° NNW
DELTA 2 R/B (1) 3.9 02:59:51 10° W 03:05:19 61° SSW 03:09:53 15° SE
YAOGAN 1 2.8 03:01:51 10° S 03:06:10 74° WSW 03:10:30 10° NNW
SJ-6B 4.3 03:08:51 17° ENE 03:09:06 17° ENE 03:11:31 10° NNE
ARGOS 3.4 03:04:32 10° SE 03:09:38 47° ENE 03:14:46 10° N
ATLAS 5 CENTAUR R/B 2.8 03:06:21 10° NW 03:09:48 86° NE 03:21:41 10° SE
In-Cosmos 22 4.5 03:05:33 10° N 03:10:32 40° ENE 03:15:35 10° SE
SL-08 RB Rocket 4.4 03:09:03 15° SE 03:12:18 32° ENE 03:16:22 10° N
USA 186 3.0 03:14:50 23° ENE 03:14:51 23° ENE 03:17:27 10° NNE
CZ-2C R/B 3.2 03:11:54 10° SSE 03:17:05 84° WSW 03:22:37 10° NNW
CZ-2C R/B 3.2 03:12:15 10° NNE 03:17:23 37° E 03:22:31 10° SSE
Cosmos 2298 Rocket 4.0 03:12:34 10° S 03:17:50 65° ESE 03:23:07 10° NNE
Cosmos 1536 Rocket 4.2 03:16:45 10° NNE 03:20:49 34° ENE 03:22:45 24° ESE
MOS 1 Rocket 3.0 03:18:17 10° NNE 03:22:42 87° ESE 03:26:58 10° SSW
Cosmos 1025 Rocket 3.1 03:21:12 10° N 03:25:29 52° E 03:28:46 17° SSE
ISS -1.6 03:22:44 10° W 03:25:31 24° NNW 03:28:19 10° NNE
Cosmos 372 Rocket 4.3 03:21:00 10° SSW 03:26:13 70° WNW 03:31:27 10° NNE
Cosmos 1513 Rocket 4.5 03:21:31 10° S 03:27:48 89° E 03:34:02 10° N
Cosmos 2285 Rocket 4.2 03:26:41 10° S 03:32:37 46° ESE 03:38:37 10° NNE
Cosmos 1844 3.7 03:27:37 10° S 03:33:11 57° ESE 03:38:43 10° NNE
Cosmos 2151 Rocket 3.5 03:31:41 10° S 03:36:07 78° E 03:40:36 10° N
Cosmos 1844 Rocket 2.5 03:31:58 10° SSW 03:37:30 79° ESE 03:43:06 10° NNE
Cosmos 1464 Rocket 4.1 03:31:53 10° S 03:38:00 79° W 03:44:11 10° N
Cosmos 1867 3.6 03:33:12 10° NNW 03:38:42 83° WSW 03:42:27 21° SSE
NOSS 3-2 (A) 4.3 03:31:41 10° NNW 03:39:12 56° NE 03:43:55 27° ESE
CZ-2C R/B 1.3 03:37:38 10° W 03:41:05 44° S 03:41:25 42° S
Cosmos 2150 Rocket 4.2 03:41:37 10° SSW 03:46:57 74° WNW 03:52:24 10° NNE
Cosmos 1092 Rocket 4.3 03:42:25 10° N 03:48:14 42° ENE 03:49:45 36° ESE
MetOp-A 4.2 03:49:02 38° SE 03:50:44 53° ENE 03:55:57 10° N
Cosmos 1125 Rocket 3.4 03:45:33 10° SSW 03:50:50 79° ESE 03:56:10 10° NNE
MOS 1 4.2 03:53:26 33° SE 03:55:59 66° ENE 04:01:39 10° N
USA 234 3.2 03:52:10 12° NE 03:58:09 62° SE 04:04:37 10° SSW
DMSP B5D2-2 3.9 03:54:01 10° NNE 03:59:20 77° ESE 04:04:36 10° S
Cosmos 1674 3.4 04:00:55 10° N 04:03:41 44° NNE 04:03:41 44° NNE
Resurs 01 Rocket 3.4 04:14:24 21° NNE 04:14:24 21° NNE 04:16:12 10° N
NOSS 3-2 (C) 4.2 04:07:23 10° NNW 04:14:59 60° NE 04:17:17 46° ESE
NOSS 3-4 (A) 3.2 04:09:29 10° SSW 04:15:17 69° ESE 04:21:23 10° NE
NOSS 3-4 (C) 3.2 04:09:37 10° SSW 04:15:24 68° ESE 04:17:40 39° NE
H-2A R/B 3.9 04:14:46 10° SSW 04:18:54 27° W 04:23:08 10° NW
Cosmos 1048 Rocket 4.3 04:17:12 10° NNW 04:22:30 67° WSW 04:23:44 50° SSW
OBJECT-B 3.8 04:29:43 12° NNW 04:29:43 12° NNW 04:30:02 10° NNW
Okean 1 Rocket 3.6 04:30:29 57° WNW 04:30:29 57° WNW 04:34:50 10° N
ATLAS 2AS CENTAUR R/B 2.9 04:29:56 10° SSW 04:37:50 87° ESE 04:45:49 10° NNE
Ariane Rocket 4.1 04:37:08 30° SW 04:38:54 40° W 04:43:41 10° NNW
Milstar 3 Cent rocket 3.9 04:40:22 10° SW 04:43:05 21° SW 04:43:05 21° SW
CENTAUR R/B 3.1 04:38:55 10° NNW 04:47:16 84° ENE 04:48:39 68° SE
Cosmos 494 Rocket 4.5 04:42:17 10° NNW 04:46:55 58° WNW 04:46:55 58° WNW
Cosmos 2082 Rocket 4.3 04:45:35 10° N 04:47:12 15° NNE 04:47:12 15° NNE
Meteor 2-5 Rocket 4.1 04:47:37 10° NNW 04:52:52 64° WNW 04:52:52 64° WNW
ATLAS 3B R/B 3.7 04:49:13 10° NNW 04:54:32 34° NNE 04:54:32 34° NNE
USA 238 DEB 4.3 04:56:12 10° NW 05:03:17 54° WSW 05:04:13 51° SW
USA 238 4.3 04:56:18 10° NW 05:03:23 54° WSW 05:04:18 51° SW
COSMOS 2406 4.5 04:59:10 10° NNW 05:02:20 33° N 05:02:20 33° N
USA 234 4.3 05:39:40 37° N 05:40:56 41° NNW 05:46:57 10° W
USA 267 4.5 10:06:09 10° NE 10:09:48 36° ENE 10:09:48 36° ENE
Cosmos 1980 Rocket 3.8 10:34:34 30° NE 10:34:34 30° NE 10:37:36 10° NNE
SL-16 R/B 4.4 10:47:26 16° ESE 10:48:53 18° E 10:52:35 10° ENE
ADEOS II 4.1 10:48:19 10° N 10:50:02 21° N 10:50:02 21° N
ARIANE 5 R/B 4.1 10:50:24 10° NNE 10:53:01 30° NNE 10:53:01 30° NNE
IDEFIX/ARIANE 42P 3.6 10:57:03 10° NNE 11:00:51 43° NE 11:00:51 43° NE
SJ 16-02 4.0 11:02:38 10° NNE 11:05:44 18° ENE 11:08:49 10° ESE
H-2A R/B 4.4 11:09:31 10° ESE 11:12:57 23° ENE 11:16:26 10° NNE
Cosmos 1238 Rocket 4.3 11:09:28 10° N 11:15:57 62° E 11:17:48 43° SE
X-37B 4.1 11:23:27 12° NE 11:23:27 12° NE 11:23:51 10° ENE
Lacrosse 5 3.6 11:24:36 23° N 11:24:36 23° N 11:27:33 10° NNE
Cosmos 2278 4.5 11:32:05 41° NNW 11:32:05 41° NNW 11:36:17 10° NNE
CZ-4C R/B 4.5 11:54:38 31° N 11:54:38 31° N 11:56:39 10° N
Cosmos 921 Rocket 3.8 11:56:57 39° NNW 11:56:57 39° NNW 11:59:49 10° N
Cosmos 1812 3.4 11:56:57 45° N 11:56:57 45° N 11:59:43 10° N
